Weather in Faisalabad

Pakistan     31°27′42″N   73°04′22″E
temp.,
°C
wind,
m/s
gust,
m/s
humid.,
%
clouds,
%
prec.,
mm/h
press.,
hPa
HPBL,
m
24 january, mon
mon2423:00+11w238591 0.0 1013103
02:00+10wnw359474 0.0 1013157
05:00+10nnw3695100 0.0 1013266
08:00+10n369537 0.0 1015237
11:00+15nne236832 0.0 1016876
14:00+18n234970 0.3 10141629
17:00+16n345682 0.3 1013246
20:00+13nne23715 0.0 101676
25 january, tue
tue2523:00+11n11793 0.0 101622
02:00+10n22840 0.0 101638
05:00+10nne22860 0.0 101528
08:00+10nnw11820 0.0 101631
11:00+16wnw22560 0.0 1017814
14:00+18wnw33395 0.0 10141823
17:00+16nw23464 0.0 1013133
20:00+13nw22560 0.0 101525
26 january, wed
wed2623:00+11wnw22570 0.0 101626
02:00+10nw22580 0.0 101628
05:00+9nw22610 0.0 101535
08:00+10nw12620 0.0 101744
11:00+17nw12410 0.0 1017600
14:00+19nnw33300 0.0 10151976
17:00+17nnw34370 0.0 1015119
20:00+13n11460 0.0 101614
27 january, thu
thu2723:00+11nw11500 0.0 101711
02:00+10n11530 0.0 101710
05:00+9nw11540 0.0 101711
08:00+10nw11500 0.0 101819
11:00+17wnw34310 0.0 1019669
14:00+20nw33210 0.0 10171705
17:00+17nnw33280 0.0 101666
20:00+13nw22350 0.0 101818
28 january, fri
fri2823:00+11nnw22390 0.0 101822
02:00+10n22420 0.0 101818
05:00+9wnw11440 0.0 101710
08:00+10w11430 0.0 101825
11:00+17nw23270 0.0 1018541
14:00+20wnw23205 0.0 10161338
17:00+18nnw22280 0.0 101419
20:00+13ne22360 0.0 101624